Flag for Germany Weather past 2 weeks in Salzwedel, Saxony-Anhalt, Germany

57 °F


Feels Like: 56 °F
Forecast: 52 / 57 °F
Wind: 6 mph from Southeast

Location: Fassberg

Current Time: Oct 7, 2015 at 8:17:45 PM

Latest Report: Oct 7, 2015 at 7:20 PM

Visibility: 1 mi

Pressure: 29.92 "Hg

Humidity: 94%

Dew point: 55 °F

Location of SalzwedelLocation

Historic Weather in Salzwedel — Graph


Salzwedel temperature yesterday

Maximum temperature yesterday: 61 °F (at 4:20 PM)
Minimum temperature yesterday: 52 °F (at 3:20 AM)
Average temperature yesterday: 55 °F

Past Weeks' High & Low Weather Summary

High68 °F (Oct 5, 3:20 PM)100% (Sep 22, 11:01 PM)30.69 "Hg (Sep 22, 11:01 PM)
Low32 °F (Oct 2, 3:20 AM)51% (Oct 1, 1:20 PM)29.53 "Hg (Sep 22, 6:00 PM)
Average50 °F85%30.19 "Hg
* Reported Sep 22 6:00 PM — Oct 7 6:48 PM, Salzwedel, Weather by CustomWeather, © 2015

Note: Actual official high and low records may vary slightly from our data, if they occured in-between our weather recording intervals... More about our weather records


Salzwedel weather history for previous 24 hours

Time TempWeatherWind HumidityBarometerVisibility
6:48 PM
Wed, Oct 7
57 °FFog.7 mph94%29.92 "Hg1 mi
6:20 PM57 °FFog.6 mph94%29.89 "Hg1 mi
5:20 PM57 °FFog.6 mph94%29.89 "Hg1 mi
5:00 PM57 °FFog.6 mph94%29.89 "Hg1 mi
4:20 PM57 °FDrizzle. Fog.5 mph94%29.89 "Hg1 mi
3:20 PM57 °FDrizzle. Fog.5 mph94%29.89 "Hg1 mi
2:20 PM57 °FFog.6 mph94%29.86 "Hg1 mi
1:20 PM57 °FFog.8 mph94%29.86 "Hg1 mi
12:20 PM55 °FFog.7 mph94%29.86 "Hg1 mi
11:20 AM55 °FFog.6 mph94%29.83 "Hg2 mi
10:20 AM55 °FLight rain. Fog.8 mph94%29.83 "Hg2 mi
9:50 AM55 °FRain. Fog.8 mph94%29.83 "Hg2 mi
9:20 AM55 °FDrizzle. Fog.6 mph94%29.80 "Hg1 mi
8:20 AM55 °FDrizzle. Fog.7 mph94%29.80 "Hg1 mi
7:50 AM55 °FDrizzle. Fog.7 mph94%29.80 "Hg2 mi
7:20 AM55 °FDrizzle. Fog.7 mph94%29.77 "Hg2 mi
6:20 AM55 °FDrizzle. Fog.8 mph94%29.77 "Hg2 mi
5:20 AM55 °FDrizzle. Fog.7 mph94%29.77 "Hg2 mi
4:20 AM55 °FDrizzle. Fog.8 mph94%29.77 "Hg2 mi
3:46 AM55 °FDrizzle. Fog.8 mph94%29.77 "Hg2 mi
3:20 AM55 °FDrizzle. Fog.7 mph94%29.74 "Hg3 mi
2:20 AM55 °FLight rain. Fog.8 mph94%29.74 "Hg2 mi
1:20 AM55 °FRain. Fog.8 mph94%29.74 "Hg2 mi
12:20 AM57 °FLight rain. Mostly cloudy.7 mph88%29.74 "Hg4 mi
11:20 PM
Tue, Oct 6
57 °FLight rain. Mostly cloudy.8 mph88%29.74 "Hg4 mi
10:20 PM57 °FPassing clouds.8 mph88%29.74 "Hg4 mi
9:20 PM57 °FPassing clouds.8 mph88%29.74 "Hg4 mi
8:20 PM57 °FPartly cloudy.10 mph88%29.74 "Hg4 mi
Weather by CustomWeather, © 2015

See weather overviewHow to use our weather pages